Hoonah, AK

8:51 AM AKDT on August 21, 2017 (GMT -0800)
Hoonah

Weather History for PAOH - September, 2013

Change the Weather History Date:

Wednesday, September 4, 2013

  Actual Average Record
Temperature  
Mean Temperature 59 °F -  
Max Temperature 63 °F 55 °F 66 °F (1996)
Min Temperature 55 °F 45 °F 37 °F (2002)
Degree Days  
Heating Degree Days 6    
Growing Degree Days 9 (Base 50)    
Moisture  
Dew Point 56 °F    
Average Humidity 93    
Maximum Humidity 100    
Minimum Humidity 78    
Precipitation  
Precipitation 0.08 in - - ()
Sea Level Pressure  
Sea Level Pressure 29.91 in    
Wind  
Wind Speed 4 mph (East)    
Max Wind Speed 10 mph    
Max Gust Speed -    
Visibility 8 miles    
Events Rain    
Averages and records for this station are not official NWS values.
T = Trace of Precipitation, MM = Missing Value Source: NWS Daily Summary

Daily Weather History Graph

Daily Weather History Graph

Search for Another Location

Airport or City:

Trip Planner

Search our weather history database for the weather conditions in past years. The results will help you decide how hot, cold, wet, or windy it might be!

Date:

Astronomy

Sep. 04, 2013 Rise Set
Actual Time 6:08 AM AKDT 7:50 PM AKDT
Civil Twilight 5:27 AM AKDT 8:32 PM AKDT
Nautical Twilight 4:34 AM AKDT 9:23 PM AKDT
Astronomical Twilight 3:32 AM AKDT 10:24 PM AKDT
Moon 5:31 AM AKDT (9/4) 7:04 PM AKDT (9/4)
Length of Visible Light 15h 04m
Length of Day
13h 42m
Waning Crescent, 0% of the Moon is Illuminated
Sep 4
Waning Crescent
Sep 5
New
Sep 12
First Quarter
Sep 19
Full
Sep 26
Last Quarter

Hourly Weather History & Observations

Time (AKDT) Temp. Dew Point Humidity Pressure Visibility Wind Dir Wind Speed Gust Speed Precip Events Conditions
12:44 AM 55.4 °F 55.4 °F 100% 29.91 in 6.0 mi Calm Calm - 0.02 in Rain Light Rain
12:56 AM 55.4 °F 55.4 °F 100% 29.91 in 7.0 mi Calm Calm - N/A Rain Light Rain
1:56 AM 55.9 °F 54.9 °F 96% 29.91 in 7.0 mi Calm Calm - 0.00 in Rain Light Rain
2:11 AM 55.4 °F 55.4 °F 100% 29.91 in 5.0 mi Calm Calm - 0.03 in Rain Light Rain
2:56 AM 55.9 °F 54.9 °F 96% 29.91 in 5.0 mi East 6.9 mph - 0.06 in Rain Light Rain
3:56 AM 55.4 °F 55.4 °F 100% 29.88 in 7.0 mi East 9.2 mph - N/A Rain Light Rain
4:56 AM 55.9 °F 54.9 °F 96% 29.88 in 9.0 mi East 6.9 mph - 0.01 in   Overcast
5:17 AM 55.4 °F 55.4 °F 100% 29.87 in 6.0 mi ENE 6.9 mph - 0.01 in Rain Light Rain
5:56 AM 55.9 °F 54.9 °F 96% 29.88 in 10.0 mi East 6.9 mph - 0.01 in Rain Light Rain
6:56 AM 55.4 °F 55.4 °F 100% 29.87 in 10.0 mi East 8.1 mph - N/A   Overcast
7:56 AM 57.9 °F 54.9 °F 90% 29.87 in 10.0 mi East 9.2 mph - N/A   Overcast
8:56 AM 59.0 °F 54.9 °F 86% 29.87 in 10.0 mi East 9.2 mph - N/A   Overcast
9:56 AM 59.9 °F 55.9 °F 87% 29.87 in 10.0 mi East 8.1 mph - N/A   Overcast
10:56 AM 61.0 °F 55.9 °F 83% 29.88 in 10.0 mi East 10.4 mph - N/A   Overcast
11:56 AM 61.9 °F 55.9 °F 81% 29.89 in 10.0 mi SE 8.1 mph - N/A   Overcast
12:56 PM 62.6 °F 57.2 °F 82% 29.89 in 10.0 mi East 10.4 mph - N/A   Overcast
1:56 PM 63.0 °F 55.9 °F 78% 29.91 in 10.0 mi East 9.2 mph - 0.00 in Rain Light Rain
2:56 PM 61.9 °F 57.9 °F 87% 29.91 in 6.0 mi East 6.9 mph - 0.00 in Rain Light Rain
3:56 PM 62.6 °F 57.2 °F 82% 29.91 in 10.0 mi East 9.2 mph - N/A   Mostly Cloudy
4:56 PM 61.0 °F 55.9 °F 83% 29.91 in 10.0 mi ENE 8.1 mph - 0.00 in   Overcast
5:56 PM 59.9 °F 56.8 °F 90% 29.92 in 5.0 mi ENE 5.8 mph - 0.00 in Rain Light Rain
6:56 PM 59.0 °F 57.2 °F 94% 29.92 in 10.0 mi Variable 3.5 mph - N/A   Mostly Cloudy
7:56 PM 59.0 °F 55.9 °F 90% 29.94 in 10.0 mi Calm Calm - N/A   Overcast
8:56 PM 56.8 °F 56.8 °F 100% 29.95 in 10.0 mi Calm Calm - N/A   Overcast
9:56 PM 57.2 °F 57.2 °F 100% 29.95 in 10.0 mi Calm Calm - N/A   Mostly Cloudy
10:56 PM 57.9 °F 56.8 °F 96% 29.97 in 10.0 mi Calm Calm - N/A   Overcast
11:28 PM 57.2 °F 57.2 °F 100% 29.98 in 2.5 mi NW 3.5 mph - 0.00 in Rain Light Rain
11:37 PM 57.2 °F 57.2 °F 100% 29.99 in 2.5 mi Variable 3.5 mph - 0.00 in Rain Light Rain
11:56 PM 56.8 °F 56.8 °F 100% 30.00 in 4.0 mi NNW 3.5 mph - 0.00 in Rain Light Rain